Time,TemperatureF,DewpointF,PressureIn,WindDirection,WindDirectionDegrees,WindSpeedMPH,WindSpeedGustMPH,Humidity,HourlyPrecipIn,Conditions,Clouds,dailyrainin,SoftwareType,DateUTC
2013-06-04 00:10:00,56.0,45.0,29.82,SE,144,0.0,-999.0,66,-99.99,,,0.00,weatherlink.com 1.10,2013-06-04 04:10:00,
2013-06-04 00:25:00,55.7,45.0,29.82,SE,134,1.0,-999.0,67,-99.99,,,0.00,weatherlink.com 1.10,2013-06-04 04:25:00,
2013-06-04 00:40:00,55.6,44.0,29.82,ENE,66,0.0,-999.0,66,-99.99,,,0.00,weatherlink.com 1.10,2013-06-04 04:40:00,
2013-06-04 00:55:00,55.7,44.0,29.82,ENE,66,0.0,-999.0,65,-99.99,,,0.00,weatherlink.com 1.10,2013-06-04 04:55:00,
2013-06-04 01:11:00,55.6,44.0,29.82,ENE,66,0.0,-999.0,66,-99.99,,,0.00,weatherlink.com 1.10,2013-06-04 05:11:00,
2013-06-04 01:25:00,54.8,44.0,29.82,ENE,66,0.0,-999.0,67,-99.99,,,0.00,weatherlink.com 1.10,2013-06-04 05:25:00,
2013-06-04 01:40:00,54.1,43.0,29.83,ENE,76,0.0,-999.0,67,-99.99,,,0.00,weatherlink.com 1.10,2013-06-04 05:40:00,
2013-06-04 01:55:00,54.2,42.0,29.83,NE,52,1.0,-999.0,64,-99.99,,,0.00,weatherlink.com 1.10,2013-06-04 05:55:00,
2013-06-04 02:10:00,54.5,41.0,29.83,ENE,71,0.0,-999.0,60,-99.99,,,0.00,weatherlink.com 1.10,2013-06-04 06:10:00,
2013-06-04 02:25:00,54.5,39.0,29.83,East,79,0.0,-999.0,57,-99.99,,,0.00,weatherlink.com 1.10,2013-06-04 06:25:00,
2013-06-04 02:40:00,54.2,39.0,29.83,SE,143,0.0,-999.0,57,-99.99,,,0.00,weatherlink.com 1.10,2013-06-04 06:40:00,
2013-06-04 02:55:00,54.1,39.0,29.83,East,99,1.0,-999.0,56,-99.99,,,0.00,weatherlink.com 1.10,2013-06-04 06:55:00,
2013-06-04 03:10:00,54.1,38.0,29.84,NE,38,1.0,-999.0,54,-99.99,,,0.00,weatherlink.com 1.10,2013-06-04 07:10:00,
2013-06-04 03:26:00,53.9,37.0,29.84,NE,54,0.0,-999.0,53,-99.99,,,0.00,weatherlink.com 1.10,2013-06-04 07:26:00,
2013-06-04 03:40:00,53.5,37.0,29.84,ENE,71,0.0,-999.0,53,-99.99,,,0.00,weatherlink.com 1.10,2013-06-04 07:40:00,
2013-06-04 03:56:00,53.2,37.0,29.84,ESE,123,0.0,-999.0,54,-99.99,,,0.00,weatherlink.com 1.10,2013-06-04 07:56:00,
2013-06-04 04:26:00,52.0,37.0,29.84,SE,131,0.0,-999.0,57,-99.99,,,0.00,weatherlink.com 1.10,2013-06-04 08:26:00,
2013-06-04 04:40:00,51.6,37.0,29.84,ESE,116,0.0,-999.0,58,-99.99,,,0.00,weatherlink.com 1.10,2013-06-04 08:40:00,
2013-06-04 04:55:00,51.3,37.0,29.85,ESE,116,0.0,-999.0,58,-99.99,,,0.00,weatherlink.com 1.10,2013-06-04 08:55:00,
2013-06-04 05:10:00,50.7,38.0,29.85,ESE,116,0.0,-999.0,61,-99.99,,,0.00,weatherlink.com 1.10,2013-06-04 09:10:00,
2013-06-04 05:25:00,49.8,38.0,29.86,ESE,116,0.0,-999.0,64,-99.99,,,0.00,weatherlink.com 1.10,2013-06-04 09:25:00,
2013-06-04 05:40:00,48.9,38.0,29.86,ESE,116,0.0,-999.0,67,-99.99,,,0.00,weatherlink.com 1.10,2013-06-04 09:40:00,
2013-06-04 05:56:00,48.3,38.0,29.87,ESE,116,0.0,-999.0,68,-99.99,,,0.00,weatherlink.com 1.10,2013-06-04 09:56:00,
2013-06-04 06:11:00,48.0,39.0,29.88,ESE,116,0.0,-999.0,72,-99.99,,,0.00,weatherlink.com 1.10,2013-06-04 10:11:00,
2013-06-04 06:41:00,48.5,40.0,29.89,ESE,116,0.0,-999.0,73,-99.99,,,0.00,weatherlink.com 1.10,2013-06-04 10:41:00,
2013-06-04 06:55:00,49.4,41.0,29.89,ESE,117,0.0,-999.0,72,-99.99,,,0.00,weatherlink.com 1.10,2013-06-04 10:55:00,
2013-06-04 07:10:00,51.3,40.0,29.89,NE,56,0.0,-999.0,66,-99.99,,,0.00,weatherlink.com 1.10,2013-06-04 11:10:00,
2013-06-04 07:25:00,52.6,40.0,29.89,SSE,161,0.0,-999.0,63,-99.99,,,0.00,weatherlink.com 1.10,2013-06-04 11:25:00,
2013-06-04 07:40:00,54.1,39.0,29.89,SSE,162,0.0,-999.0,58,-99.99,,,0.00,weatherlink.com 1.10,2013-06-04 11:40:00,
2013-06-04 07:55:00,55.4,40.0,29.89,ENE,76,1.0,-999.0,57,-99.99,,,0.00,weatherlink.com 1.10,2013-06-04 11:55:00,
2013-06-04 08:10:00,56.6,40.0,29.89,ENE,73,0.0,-999.0,55,-99.99,,,0.00,weatherlink.com 1.10,2013-06-04 12:10:00,
2013-06-04 08:26:00,57.8,40.0,29.89,North,0,0.0,-999.0,52,-99.99,,,0.00,weatherlink.com 1.10,2013-06-04 12:26:00,
2013-06-04 08:41:00,58.7,39.0,29.89,NNE,30,5.0,-999.0,49,-99.99,,,0.00,weatherlink.com 1.10,2013-06-04 12:41:00,
2013-06-04 08:56:00,59.3,39.0,29.89,NNE,28,6.0,-999.0,47,-99.99,,,0.00,weatherlink.com 1.10,2013-06-04 12:56:00,
2013-06-04 09:11:00,60.2,39.0,29.90,NNE,30,1.0,-999.0,46,-99.99,,,0.00,weatherlink.com 1.10,2013-06-04 13:11:00,
2013-06-04 09:26:00,60.7,39.0,29.90,NNE,16,7.0,-999.0,45,-99.99,,,0.00,weatherlink.com 1.10,2013-06-04 13:26:00,
2013-06-04 09:41:00,62.1,40.0,29.89,North,0,0.0,-999.0,44,-99.99,,,0.00,weatherlink.com 1.10,2013-06-04 13:41:00,
2013-06-04 09:56:00,63.2,41.0,29.89,North,357,0.0,-999.0,44,-99.99,,,0.00,weatherlink.com 1.10,2013-06-04 13:56:00,
2013-06-04 10:11:00,63.5,40.0,29.89,NE,37,2.0,-999.0,42,-99.99,,,0.00,weatherlink.com 1.10,2013-06-04 14:11:00,
2013-06-04 10:25:00,64.0,38.0,29.89,NNE,27,1.0,-999.0,39,-99.99,,,0.00,weatherlink.com 1.10,2013-06-04 14:25:00,
2013-06-04 10:40:00,65.2,39.0,29.90,NE,51,0.0,-999.0,39,-99.99,,,0.00,weatherlink.com 1.10,2013-06-04 14:40:00,
2013-06-04 10:55:00,64.5,39.0,29.90,SSW,208,7.0,-999.0,39,-99.99,,,0.00,weatherlink.com 1.10,2013-06-04 14:55:00,
2013-06-04 11:11:00,64.8,38.0,29.91,SE,138,1.0,-999.0,38,-99.99,,,0.00,weatherlink.com 1.10,2013-06-04 15:11:00,
2013-06-04 11:26:00,66.0,40.0,29.91,WNW,291,2.0,-999.0,39,-99.99,,,0.00,weatherlink.com 1.10,2013-06-04 15:26:00,
2013-06-04 11:41:00,66.4,40.0,29.91,SSW,208,2.0,-999.0,38,-99.99,,,0.00,weatherlink.com 1.10,2013-06-04 15:41:00,
2013-06-04 11:56:00,65.5,40.0,29.91,SSW,205,3.0,-999.0,40,-99.99,,,0.00,weatherlink.com 1.10,2013-06-04 15:56:00,
2013-06-04 12:11:00,66.4,39.0,29.91,SSW,193,5.0,-999.0,36,-99.99,,,0.00,weatherlink.com 1.10,2013-06-04 16:11:00,
2013-06-04 12:26:00,67.3,40.0,29.91,SW,224,1.0,-999.0,37,-99.99,,,0.00,weatherlink.com 1.10,2013-06-04 16:26:00,
2013-06-04 12:41:00,66.8,40.0,29.92,ENE,76,2.0,-999.0,38,-99.99,,,0.00,weatherlink.com 1.10,2013-06-04 16:41:00,
2013-06-04 12:56:00,67.4,39.0,29.92,NE,35,9.0,-999.0,35,-99.99,,,0.00,weatherlink.com 1.10,2013-06-04 16:56:00,
2013-06-04 13:11:00,66.4,39.0,29.92,SSE,157,2.0,-999.0,37,-99.99,,,0.00,weatherlink.com 1.10,2013-06-04 17:11:00,
2013-06-04 13:26:00,68.4,40.0,29.92,North,0,1.0,-999.0,35,-99.99,,,0.00,weatherlink.com 1.10,2013-06-04 17:26:00,
2013-06-04 13:40:00,68.9,43.0,29.92,ENE,62,6.0,-999.0,39,-99.99,,,0.00,weatherlink.com 1.10,2013-06-04 17:40:00,
2013-06-04 13:55:00,69.1,39.0,29.93,East,97,1.0,-999.0,33,-99.99,,,0.00,weatherlink.com 1.10,2013-06-04 17:55:00,
2013-06-04 14:11:00,69.9,41.0,29.92,East,99,1.0,-999.0,35,-99.99,,,0.00,weatherlink.com 1.10,2013-06-04 18:11:00,
2013-06-04 14:26:00,70.8,42.0,29.92,NNE,21,7.0,-999.0,35,-99.99,,,0.00,weatherlink.com 1.10,2013-06-04 18:26:00,
2013-06-04 14:40:00,69.9,42.0,29.92,ENE,68,2.0,-999.0,36,-99.99,,,0.00,weatherlink.com 1.10,2013-06-04 18:40:00,
2013-06-04 14:56:00,70.8,41.0,29.92,NNE,30,5.0,-999.0,34,-99.99,,,0.00,weatherlink.com 1.10,2013-06-04 18:56:00,
2013-06-04 15:11:00,70.8,42.0,29.92,WNW,291,0.0,-999.0,35,-99.99,,,0.00,weatherlink.com 1.10,2013-06-04 19:11:00,
2013-06-04 15:26:00,70.9,39.0,29.92,NE,42,2.0,-999.0,31,-99.99,,,0.00,weatherlink.com 1.10,2013-06-04 19:26:00,
2013-06-04 15:41:00,71.8,43.0,29.92,SSW,198,3.0,-999.0,35,-99.99,,,0.00,weatherlink.com 1.10,2013-06-04 19:41:00,
2013-06-04 15:56:00,71.6,39.0,29.92,SE,126,2.0,-999.0,31,-99.99,,,0.00,weatherlink.com 1.10,2013-06-04 19:56:00,
2013-06-04 16:11:00,72.1,36.0,29.91,NE,38,6.0,-999.0,27,-99.99,,,0.00,weatherlink.com 1.10,2013-06-04 20:11:00,
2013-06-04 16:26:00,71.8,38.0,29.92,North,6,7.0,-999.0,29,-99.99,,,0.00,weatherlink.com 1.10,2013-06-04 20:26:00,
2013-06-04 16:41:00,71.3,39.0,29.92,NNE,27,5.0,-999.0,31,-99.99,,,0.00,weatherlink.com 1.10,2013-06-04 20:41:00,
2013-06-04 17:11:00,72.1,41.0,29.92,ESE,104,2.0,-999.0,33,-99.99,,,0.00,weatherlink.com 1.10,2013-06-04 21:11:00,
2013-06-04 17:26:00,71.6,42.0,29.93,East,82,1.0,-999.0,35,-99.99,,,0.00,weatherlink.com 1.10,2013-06-04 21:26:00,
2013-06-04 17:41:00,71.1,38.0,29.93,East,95,2.0,-999.0,30,-99.99,,,0.00,weatherlink.com 1.10,2013-06-04 21:41:00,
2013-06-04 17:56:00,69.9,38.0,29.93,NE,34,6.0,-999.0,31,-99.99,,,0.00,weatherlink.com 1.10,2013-06-04 21:56:00,
2013-06-04 18:11:00,69.4,40.0,29.93,SSW,205,0.0,-999.0,34,-99.99,,,0.00,weatherlink.com 1.10,2013-06-04 22:11:00,
2013-06-04 18:41:00,68.1,39.0,29.95,NE,52,1.0,-999.0,35,-99.99,,,0.00,weatherlink.com 1.10,2013-06-04 22:41:00,
2013-06-04 18:56:00,67.8,40.0,29.95,ENE,72,2.0,-999.0,36,-99.99,,,0.00,weatherlink.com 1.10,2013-06-04 22:56:00,
2013-06-04 19:11:00,67.3,41.0,29.96,NNE,27,0.0,-999.0,39,-99.99,,,0.00,weatherlink.com 1.10,2013-06-04 23:11:00,
2013-06-04 19:26:00,66.9,41.0,29.96,ENE,78,0.0,-999.0,39,-99.99,,,0.00,weatherlink.com 1.10,2013-06-04 23:26:00,
2013-06-04 19:41:00,66.4,42.0,29.97,NNE,20,0.0,-999.0,42,-99.99,,,0.00,weatherlink.com 1.10,2013-06-04 23:41:00,
2013-06-04 19:55:00,65.6,45.0,29.97,NNE,21,0.0,-999.0,47,-99.99,,,0.00,weatherlink.com 1.10,2013-06-04 23:55:00,
2013-06-04 20:11:00,64.5,45.0,29.98,NNE,21,0.0,-999.0,50,-99.99,,,0.00,weatherlink.com 1.10,2013-06-05 00:11:00,
2013-06-04 20:26:00,63.1,45.0,29.98,NNE,21,0.0,-999.0,53,-99.99,,,0.00,weatherlink.com 1.10,2013-06-05 00:26:00,
2013-06-04 20:40:00,61.6,45.0,30.00,NNE,21,0.0,-999.0,54,-99.99,,,0.00,weatherlink.com 1.10,2013-06-05 00:40:00,
2013-06-04 20:56:00,60.4,44.0,30.01,NNE,21,0.0,-999.0,55,-99.99,,,0.00,weatherlink.com 1.10,2013-06-05 00:56:00,
2013-06-04 21:11:00,59.5,44.0,30.02,NE,35,0.0,-999.0,57,-99.99,,,0.00,weatherlink.com 1.10,2013-06-05 01:11:00,
2013-06-04 21:26:00,58.9,44.0,30.02,NE,41,0.0,-999.0,59,-99.99,,,0.00,weatherlink.com 1.10,2013-06-05 01:26:00,
2013-06-04 21:41:00,58.6,42.0,30.02,NE,41,0.0,-999.0,55,-99.99,,,0.00,weatherlink.com 1.10,2013-06-05 01:41:00,
2013-06-04 21:56:00,58.7,42.0,30.04,NE,40,0.0,-999.0,54,-99.99,,,0.00,weatherlink.com 1.10,2013-06-05 01:56:00,
2013-06-04 22:11:00,59.0,42.0,30.05,NNE,23,2.0,-999.0,53,-99.99,,,0.00,weatherlink.com 1.10,2013-06-05 02:11:00,
2013-06-04 22:26:00,59.2,41.0,30.05,NNE,30,0.0,-999.0,52,-99.99,,,0.00,weatherlink.com 1.10,2013-06-05 02:26:00,
2013-06-04 22:41:00,59.2,42.0,30.06,NNE,24,0.0,-999.0,53,-99.99,,,0.00,weatherlink.com 1.10,2013-06-05 02:41:00,
2013-06-04 22:56:00,58.6,42.0,30.06,NNE,25,0.0,-999.0,54,-99.99,,,0.00,weatherlink.com 1.10,2013-06-05 02:56:00,
2013-06-04 23:11:00,58.1,41.0,30.07,NE,49,2.0,-999.0,54,-99.99,,,0.00,weatherlink.com 1.10,2013-06-05 03:11:00,
2013-06-04 23:26:00,57.6,42.0,30.07,NE,51,0.0,-999.0,56,-99.99,,,0.00,weatherlink.com 1.10,2013-06-05 03:26:00,
2013-06-04 23:41:00,57.2,42.0,30.07,NE,55,0.0,-999.0,57,-99.99,,,0.00,weatherlink.com 1.10,2013-06-05 03:41:00,
2013-06-04 23:56:00,56.7,43.0,30.08,NE,55,0.0,-999.0,60,-99.99,,,0.00,weatherlink.com 1.10,2013-06-05 03:56:00,